Weather History for Albany, GA

Change the Weather History Date:

Thursday, October 10, 2013

  Actual Average Record
Temperature  
Mean Temperature 70 °F 70 °F  
Max Temperature 84 °F 82 °F 95 °F (1990)
Min Temperature 56 °F 58 °F 37 °F (1988)
Degree Days  
Heating Degree Days 0 1  
Month to date heating degree days 0 2  
Since 1 July heating degree days 0 3  
Cooling Degree Days 5 6  
Month to date cooling degree days 89 70  
Year to date cooling degree days 2311 2426  
Growing Degree Days 20 (Base 50)    
Moisture  
Dew Point 57 °F    
Average Humidity 67    
Maximum Humidity 97    
Minimum Humidity 37    
Precipitation  
Precipitation 0.00 in - 0.51 in (2011)
Month to date precipitation 0.28  
Year to date precipitation 42.81  
Sea Level Pressure  
Sea Level Pressure 30.09 in    
Wind  
Wind Speed 2 mph (NNW)    
Max Wind Speed 9 mph    
Max Gust Speed 26 mph    
Visibility 10 miles    
Events      
T = Trace of Precipitation, MM = Missing Value Source: NWS Daily Summary

Daily Weather History Graph

Daily Weather History Graph

Search for Another Location

Airport:

Trip Planner

Search our weather history database for the weather conditions in past years. The results will help you decide how hot, cold, wet, or windy it might be!

Date:

Astronomy

Oct. 10, 2013 Rise Set
Actual Time 7:36 AM EDT 7:10 PM EDT
Civil Twilight 7:12 AM EDT 7:34 PM EDT
Nautical Twilight 6:43 AM EDT 8:02 PM EDT
Astronomical Twilight 6:15 AM EDT 8:30 PM EDT
Moon 1:13 PM EDT (10/10) No Moon Set
Length of Visible Light 12h 22m
Length of Day
11h 33m
Waxing Crescent, 35% of the Moon is Illuminated
Oct 10
Waxing Crescent
Oct 11
First Quarter
Oct 18
Full
Oct 26
Last Quarter
Nov 3
New

Hourly Weather History & Observations

Time (EDT) Temp. Heat Index Dew Point Humidity Pressure Visibility Wind Dir Wind Speed Gust Speed Precip Events Conditions
12:53 AM 61.0 °F - 59.0 °F 93% 30.11 in 10.0 mi Calm Calm - N/A   Clear
1:53 AM 61.0 °F - 59.0 °F 93% 30.11 in 10.0 mi Calm Calm - N/A   Clear
2:53 AM 60.1 °F - 57.9 °F 93% 30.11 in 10.0 mi Calm Calm - N/A   Clear
3:53 AM 59.0 °F - 57.9 °F 96% 30.10 in 10.0 mi Calm Calm - N/A   Clear
4:53 AM 57.0 °F - 55.9 °F 96% 30.11 in 10.0 mi Calm Calm - N/A   Clear
5:53 AM 57.0 °F - 55.9 °F 96% 30.12 in 10.0 mi Calm Calm - N/A   Clear
6:53 AM 57.0 °F - 55.9 °F 96% 30.12 in 10.0 mi Calm Calm - N/A   Clear
7:53 AM 57.0 °F - 55.9 °F 96% 30.14 in 10.0 mi Calm Calm - N/A   Clear
8:53 AM 62.1 °F - 57.9 °F 86% 30.14 in 10.0 mi Calm Calm - N/A   Partly Cloudy
9:53 AM 66.9 °F - 57.0 °F 70% 30.14 in 10.0 mi East 3.5 mph - N/A   Clear
10:53 AM 73.0 °F - 55.0 °F 53% 30.15 in 10.0 mi East 3.5 mph - N/A   Partly Cloudy
11:53 AM 75.9 °F - 52.0 °F 43% 30.14 in 10.0 mi Calm Calm - N/A   Partly Cloudy
12:53 PM 79.0 °F - 52.0 °F 39% 30.12 in 10.0 mi Variable 3.5 mph - N/A   Clear
1:53 PM 81.0 °F 80.4 °F 53.1 °F 38% 30.10 in 10.0 mi Variable 5.8 mph - N/A   Partly Cloudy
2:53 PM 82.0 °F 81.3 °F 54.0 °F 38% 30.07 in 10.0 mi Variable 5.8 mph - N/A   Clear
3:53 PM 82.0 °F 81.4 °F 55.0 °F 39% 30.05 in 10.0 mi West 8.1 mph - N/A   Clear
4:53 PM 82.0 °F 81.6 °F 55.9 °F 41% 30.04 in 10.0 mi NNW 5.8 mph - N/A   Clear
5:53 PM 81.0 °F 80.8 °F 55.9 °F 42% 30.03 in 10.0 mi WNW 5.8 mph - N/A   Clear
6:53 PM 75.9 °F - 60.1 °F 58% 30.03 in 10.0 mi Calm Calm - N/A   Clear
7:53 PM 71.1 °F - 61.0 °F 70% 30.03 in 10.0 mi Calm Calm - N/A   Clear
8:53 PM 66.0 °F - 61.0 °F 84% 30.04 in 10.0 mi Calm Calm - N/A   Clear
9:53 PM 64.9 °F - 61.0 °F 87% 30.04 in 10.0 mi Calm Calm - N/A   Clear
10:53 PM 64.0 °F - 60.1 °F 87% 30.04 in 10.0 mi Calm Calm - N/A   Clear
11:53 PM 63.0 °F - 61.0 °F 93% 30.04 in 10.0 mi Calm Calm - N/A   Clear